Regional Weather Roundup
Issued by NWS New Orleans/Baton Rouge, LA

Home | Current Version | Previous Version | Graphics & Text | Print | Product List | Glossary On
Versions: 1 2 3 4 5 6 7 8 9 10 11 12 13 14 15 16 17 18 19 20 21 22 23 24 25 26 27 28 29 30 31 32 33 34 35 36 37 38 39 40 41 42 43 44 45 46 47 48 49 50
567
ASUS44 KLIX 230501
RWRLIX
NEW ORLEANS REGIONAL WEATHER ROUNDUP
NATIONAL WEATHER SERVICE NEW ORLEANS LA
1100 PM CST SAT NOV 22 2014

NOTE: "FAIR" INDICATES FEW OR NO CLOUDS BELOW 12,000 FEET WITH NO
      SIGNIFICANT WEATHER AND/OR OBSTRUCTIONS TO VISIBILITY.
      SKY/WX - SKY CONDITION AND SIGNIFICANT WEATHER.
      TMP - AIR TEMPERATURE.     DP    - DEWPOINT TEMPERATURE.
      RH  - RELATIVE HUMIDITY.   PRES  - PRESSURE.
      HI  - HEAT INDEX.          WCI   - WIND CHILL INDEX.

*  THESE STATIONS ARE NOT NWS OR FAA STATIONS AND ARE NOT UNDER
   NWS QUALITY CONTROL.

LAZ038-040-048-061>063-065>067-069-230600-
SOUTHEAST LOUISIANA

CITY           SKY/WX    TMP DP  RH WIND       PRES   REMARKS
N.O. AUDUBON     N/A     63  61  94 MISG        N/A
N.O. INTL ARPT CLOUDY    62  60  93 E14G20    29.92F FOG
N.O. LAKEFRONT CLOUDY    62  59  90 E18       29.93F
N.O. DOWNTOWN* CLOUDY    61  55  82 E8        29.92F
SLIDELL        CLOUDY    65  60  84 E8        29.94S
BATON ROUGE    CLOUDY    64  61  90 E16       29.88F
BOOTHVILLE     CLOUDY    64  64 100 E8        29.92F
BELLE CHASSE   CLOUDY    64  60  87 NE9       29.91F FOG
BOGALUSA*        N/A     65  59  83 E7        29.97S
NEW ROADS*     NOT AVBL
GONZALES*      NOT AVBL
HAMMOND*       NOT AVBL
HOUMA*         CLOUDY    65  64  95 E14       29.87F
PORT FOURCHON* PTCLDY    68  66  94 E15G22    29.89F

$$

MSZ070-080>082-230600-
SOUTHERN MISSISSIPPI

CITY           SKY/WX    TMP DP  RH WIND       PRES   REMARKS
MCCOMB         CLOUDY    61  58  90 MISG      29.93F
GULFPORT       CLOUDY    62  59  90 E8        29.95F
BILOXI         CLOUDY    62  60  91 E12       29.94F
PASCAGOULA     CLOUDY    62  59  90 E10       29.95F

$$

COASTAL OBSERVATIONS
LAKE AND NEARSHORE STATIONS

STATION/POSITION TIME  TEMP    WIND        PRES    WAVE
                       AIR SEA DIR/SP/G            HT/PER
                 (UTC) (F)     (DEG/KT/KT) (MB)    (FT/S)
PASCAGOULA       0400   62      70/ 18/ 23 1013.8
WAVELAND YACHT   0400   62      90/ 13/ 18 1013.2
GRAND ISLE       0400   66 62  110/  8/ 12 1012.9
SOUTHWEST PASS   0400   69 72              1013.4
NEW CANAL        0400   62 54   70/  3/ 10 1014.2
SHELL BEACH      0400   61 53   90/ 17/ 21 1012.8

OFFSHORE STATIONS

STATION/POSITION TIME  TEMP    WIND        PRES    WAVE
                       AIR SEA DIR/SP/G            HT/PER
                 (UTC) (F)     (DEG/KT/KT) (MB)    (FT/S)
64 S DAUPHIN ISL 0438   70 72   90/ 25/ 31 1012.5    8/ 7

$$




USA.gov is the U.S. government's official web portal to all federal, state and local government web resources and services.